Year,Month,Day,Hour,Minute,Value (Times are PST for temperature in C)
2009,05,25,00,00,9.20
2009,05,25,00,01,9.20
2009,05,25,00,02,9.20
2009,05,25,00,03,9.20
2009,05,25,00,04,9.20
2009,05,25,00,05,9.10
2009,05,25,00,06,9.10
2009,05,25,00,07,9.10
2009,05,25,00,08,9.10
2009,05,25,00,09,9.10
2009,05,25,00,10,9.10
2009,05,25,00,11,9.10
2009,05,25,00,12,9.10
2009,05,25,00,13,9.00
2009,05,25,00,14,9.00
2009,05,25,00,15,9.00
2009,05,25,00,16,8.90
2009,05,25,00,17,8.90
2009,05,25,00,18,8.90
2009,05,25,00,19,8.90
2009,05,25,00,20,8.90
2009,05,25,00,21,8.90
2009,05,25,00,22,8.90
2009,05,25,00,23,8.80
2009,05,25,00,24,8.80
2009,05,25,00,25,8.80
2009,05,25,00,26,8.80
2009,05,25,00,27,8.80
2009,05,25,00,28,8.80
2009,05,25,00,29,8.80
2009,05,25,00,30,8.80
2009,05,25,00,31,8.80
2009,05,25,00,32,8.70
2009,05,25,00,33,8.70
2009,05,25,00,34,8.70
2009,05,25,00,35,8.70
2009,05,25,00,36,8.70
2009,05,25,00,37,8.70
2009,05,25,00,38,8.70
2009,05,25,00,39,8.70
2009,05,25,00,40,8.60
2009,05,25,00,41,8.60
2009,05,25,00,42,8.60
2009,05,25,00,43,8.60
2009,05,25,00,44,8.60
2009,05,25,00,45,8.60
2009,05,25,00,46,8.60
2009,05,25,00,47,8.50
2009,05,25,00,48,8.50
2009,05,25,00,49,8.50
2009,05,25,00,50,8.50
2009,05,25,00,51,8.50
2009,05,25,00,52,8.40
2009,05,25,00,53,8.40
2009,05,25,00,54,8.40
2009,05,25,00,55,8.40
2009,05,25,00,56,8.40
2009,05,25,00,57,8.40
2009,05,25,00,58,8.40
2009,05,25,00,59,8.40
2009,05,25,01,00,8.30
2009,05,25,01,01,8.30
2009,05,25,01,02,8.30
2009,05,25,01,03,8.30
2009,05,25,01,04,8.30
2009,05,25,01,05,8.30
2009,05,25,01,06,8.30
2009,05,25,01,07,8.20
2009,05,25,01,08,8.20
2009,05,25,01,09,8.20
2009,05,25,01,10,8.20
2009,05,25,01,11,8.20
2009,05,25,01,12,8.20
2009,05,25,01,13,8.20
2009,05,25,01,14,8.20
2009,05,25,01,15,8.10
2009,05,25,01,16,8.10
2009,05,25,01,17,8.10
2009,05,25,01,18,8.10
2009,05,25,01,19,8.10
2009,05,25,01,20,8.10
2009,05,25,01,21,8.10
2009,05,25,01,22,8.00
2009,05,25,01,23,8.00
2009,05,25,01,24,8.00
2009,05,25,01,25,8.00
2009,05,25,01,26,8.00
2009,05,25,01,27,7.90
2009,05,25,01,28,7.90
2009,05,25,01,29,7.90
2009,05,25,01,30,7.90
2009,05,25,01,31,7.90
2009,05,25,01,32,7.90
2009,05,25,01,33,7.90
2009,05,25,01,34,7.90
2009,05,25,01,35,7.90
2009,05,25,01,36,7.90
2009,05,25,01,37,7.80
2009,05,25,01,38,7.80
2009,05,25,01,39,7.80
2009,05,25,01,40,7.80
2009,05,25,01,41,7.80
2009,05,25,01,42,7.80
2009,05,25,01,43,7.80
2009,05,25,01,44,7.80
2009,05,25,01,45,7.80
2009,05,25,01,46,7.80
2009,05,25,01,47,7.80
2009,05,25,01,48,7.80
2009,05,25,01,49,7.80
2009,05,25,01,50,7.80
2009,05,25,01,51,7.80
2009,05,25,01,52,7.70
2009,05,25,01,53,7.70
2009,05,25,01,54,7.70
2009,05,25,01,55,7.70
2009,05,25,01,56,7.70
2009,05,25,01,57,7.70
2009,05,25,01,58,7.70
2009,05,25,01,59,7.70
2009,05,25,02,00,7.70
2009,05,25,02,01,7.70
2009,05,25,02,02,7.60
2009,05,25,02,03,7.60
2009,05,25,02,04,7.60
2009,05,25,02,05,7.60
2009,05,25,02,06,7.60
2009,05,25,02,07,7.60
2009,05,25,02,08,7.60
2009,05,25,02,09,7.50
2009,05,25,02,10,7.50
2009,05,25,02,11,7.50
2009,05,25,02,12,7.50
2009,05,25,02,13,7.50
2009,05,25,02,14,7.40
2009,05,25,02,15,7.40
2009,05,25,02,16,7.40
2009,05,25,02,17,7.40
2009,05,25,02,18,7.40
2009,05,25,02,19,7.40
2009,05,25,02,20,7.40
2009,05,25,02,21,7.40
2009,05,25,02,22,7.40
2009,05,25,02,23,7.30
2009,05,25,02,24,7.30
2009,05,25,02,25,7.30
2009,05,25,02,26,7.30
2009,05,25,02,27,7.30
2009,05,25,02,28,7.30
2009,05,25,02,29,7.30
2009,05,25,02,30,7.30
2009,05,25,02,31,7.30
2009,05,25,02,32,7.20
2009,05,25,02,33,7.20
2009,05,25,02,34,7.20
2009,05,25,02,35,7.20
2009,05,25,02,36,7.20
2009,05,25,02,37,7.20
2009,05,25,02,38,7.20
2009,05,25,02,39,7.20
2009,05,25,02,40,7.20
2009,05,25,02,41,7.20
2009,05,25,02,42,7.20
2009,05,25,02,43,7.20
2009,05,25,02,44,7.20
2009,05,25,02,45,7.20
2009,05,25,02,46,7.10
2009,05,25,02,47,7.10
2009,05,25,02,48,7.10
2009,05,25,02,49,7.10
2009,05,25,02,50,7.10
2009,05,25,02,51,7.10
2009,05,25,02,52,7.10
2009,05,25,02,53,7.10
2009,05,25,02,54,7.10
2009,05,25,02,55,7.10
2009,05,25,02,56,7.00
2009,05,25,02,57,7.00
2009,05,25,02,58,7.00
2009,05,25,02,59,7.00
2009,05,25,03,00,7.00
2009,05,25,03,01,7.00
2009,05,25,03,02,6.90
2009,05,25,03,03,6.90
2009,05,25,03,04,6.90
2009,05,25,03,05,6.90
2009,05,25,03,06,6.90
2009,05,25,03,07,6.90
2009,05,25,03,08,6.90
2009,05,25,03,09,6.90
2009,05,25,03,10,6.90
2009,05,25,03,11,6.90
2009,05,25,03,12,6.80
2009,05,25,03,13,6.80
2009,05,25,03,14,6.80
2009,05,25,03,15,6.80
2009,05,25,03,16,6.80
2009,05,25,03,17,6.80
2009,05,25,03,18,6.80
2009,05,25,03,19,6.80
2009,05,25,03,20,6.80
2009,05,25,03,21,6.80
2009,05,25,03,22,6.80
2009,05,25,03,23,6.80
2009,05,25,03,24,6.80
2009,05,25,03,25,6.80
2009,05,25,03,26,6.70
2009,05,25,03,27,6.70
2009,05,25,03,28,6.70
2009,05,25,03,29,6.70
2009,05,25,03,30,6.70
2009,05,25,03,31,6.70
2009,05,25,03,32,6.70
2009,05,25,03,33,6.70
2009,05,25,03,34,6.70
2009,05,25,03,35,6.60
2009,05,25,03,36,6.70
2009,05,25,03,37,6.60
2009,05,25,03,38,6.60
2009,05,25,03,39,6.60
2009,05,25,03,40,6.60
2009,05,25,03,41,6.60
2009,05,25,03,42,6.60
2009,05,25,03,43,6.60
2009,05,25,03,44,6.60
2009,05,25,03,45,6.60
2009,05,25,03,46,6.60
2009,05,25,03,47,6.60
2009,05,25,03,48,6.60
2009,05,25,03,49,6.60
2009,05,25,03,50,6.60
2009,05,25,03,51,6.60
2009,05,25,03,52,6.60
2009,05,25,03,53,6.60
2009,05,25,03,54,6.60
2009,05,25,03,55,6.60
2009,05,25,03,56,6.60
2009,05,25,03,57,6.60
2009,05,25,03,58,6.60
2009,05,25,03,59,6.50
2009,05,25,04,00,6.50
2009,05,25,04,01,6.50
2009,05,25,04,02,6.50
2009,05,25,04,03,6.40
2009,05,25,04,04,6.40
2009,05,25,04,05,6.40
2009,05,25,04,13,6.30
2009,05,25,04,22,6.30
2009,05,25,04,33,6.20
2009,05,25,04,42,6.20
2009,05,25,04,43,6.20
2009,05,25,04,44,6.20
2009,05,25,04,45,6.20
2009,05,25,04,46,6.20
2009,05,25,04,47,6.20
2009,05,25,04,48,6.20
2009,05,25,04,49,6.20
2009,05,25,04,50,6.10
2009,05,25,04,51,6.10
2009,05,25,04,52,6.10
2009,05,25,04,53,6.10
2009,05,25,04,54,6.10
2009,05,25,04,55,6.10
2009,05,25,04,56,6.10
2009,05,25,04,57,6.10
2009,05,25,04,58,6.10
2009,05,25,04,59,6.10
2009,05,25,05,00,6.10
2009,05,25,05,01,6.10
2009,05,25,05,02,6.10
2009,05,25,05,03,6.10
2009,05,25,05,04,6.10
2009,05,25,05,05,6.10
2009,05,25,05,06,6.10
2009,05,25,05,07,6.10
2009,05,25,05,08,6.10
2009,05,25,05,09,6.10
2009,05,25,05,10,6.00
2009,05,25,05,11,6.00
2009,05,25,05,12,6.00
2009,05,25,05,13,6.00
2009,05,25,05,14,6.00
2009,05,25,05,15,6.00
2009,05,25,05,16,6.00
2009,05,25,05,17,6.00
2009,05,25,05,18,6.00
2009,05,25,05,19,6.00
2009,05,25,05,20,6.00
2009,05,25,05,21,6.00
2009,05,25,05,22,5.90
2009,05,25,05,23,5.90
2009,05,25,05,24,5.90
2009,05,25,05,25,5.90
2009,05,25,05,26,5.90
2009,05,25,05,27,5.90
2009,05,25,05,28,5.90
2009,05,25,05,29,5.90
2009,05,25,05,30,5.90
2009,05,25,05,31,5.90
2009,05,25,05,32,5.90
2009,05,25,05,33,5.90
2009,05,25,05,34,5.90
2009,05,25,05,35,5.90
2009,05,25,05,36,5.90
2009,05,25,05,37,5.90
2009,05,25,05,38,5.90
2009,05,25,05,39,5.90
2009,05,25,05,40,5.90
2009,05,25,05,41,5.90
2009,05,25,05,42,5.90
2009,05,25,05,43,5.90
2009,05,25,05,44,5.90
2009,05,25,05,45,5.90
2009,05,25,05,46,5.90
2009,05,25,05,47,5.90
2009,05,25,05,48,5.90
2009,05,25,05,49,5.90
2009,05,25,05,50,5.90
2009,05,25,05,51,5.90
2009,05,25,05,52,5.90
2009,05,25,05,53,5.90
2009,05,25,05,54,5.90
2009,05,25,05,55,5.90
2009,05,25,05,56,5.90
2009,05,25,05,57,5.90
2009,05,25,05,58,5.90
2009,05,25,05,59,5.90
2009,05,25,06,00,5.90
2009,05,25,06,01,5.90
2009,05,25,06,02,5.90
2009,05,25,06,03,5.90
2009,05,25,06,04,5.90
2009,05,25,06,05,5.90
2009,05,25,06,06,5.90
2009,05,25,06,07,5.80
2009,05,25,06,08,5.80
2009,05,25,06,09,5.80
2009,05,25,06,10,5.90
2009,05,25,06,11,5.80
2009,05,25,06,12,5.80
2009,05,25,06,13,5.90
2009,05,25,06,14,5.90
2009,05,25,06,15,5.90
2009,05,25,06,16,5.90
2009,05,25,06,17,5.90
2009,05,25,06,18,5.90
2009,05,25,06,19,5.90
2009,05,25,06,20,5.90
2009,05,25,06,21,5.90
2009,05,25,06,22,5.90
2009,05,25,06,23,5.90
2009,05,25,06,24,5.90
2009,05,25,06,25,5.90
2009,05,25,06,26,5.90
2009,05,25,06,27,6.00
2009,05,25,06,28,6.00
2009,05,25,06,29,6.00
2009,05,25,06,30,6.00
2009,05,25,06,31,6.00
2009,05,25,06,32,6.10
2009,05,25,06,33,6.10
2009,05,25,06,34,6.10
2009,05,25,06,35,6.10
2009,05,25,06,36,6.10
2009,05,25,06,37,6.10
2009,05,25,06,38,6.10
2009,05,25,06,39,6.10
2009,05,25,06,40,6.10
2009,05,25,06,41,6.20
2009,05,25,06,42,6.20
2009,05,25,06,43,6.20
2009,05,25,06,44,6.20
2009,05,25,06,45,6.20
2009,05,25,06,46,6.20
2009,05,25,06,47,6.20
2009,05,25,06,48,6.30
2009,05,25,06,49,6.30
2009,05,25,06,50,6.30
2009,05,25,06,51,6.30
2009,05,25,06,52,6.30
2009,05,25,06,53,6.40
2009,05,25,06,54,6.40
2009,05,25,06,55,6.40
2009,05,25,06,56,6.50
2009,05,25,06,57,6.50
2009,05,25,06,58,6.50
2009,05,25,06,59,6.60
2009,05,25,07,00,6.60
2009,05,25,07,01,6.60
2009,05,25,07,02,6.70
2009,05,25,07,03,6.70
2009,05,25,07,04,6.80
2009,05,25,07,05,6.80
2009,05,25,07,06,6.90
2009,05,25,07,07,7.00
2009,05,25,07,08,7.00
2009,05,25,07,09,7.10
2009,05,25,07,10,7.10
2009,05,25,07,11,7.20
2009,05,25,07,12,7.20
2009,05,25,07,13,7.20
2009,05,25,07,14,7.30
2009,05,25,07,15,7.30
2009,05,25,07,16,7.40
2009,05,25,07,17,7.40
2009,05,25,07,18,7.50
2009,05,25,07,19,7.50
2009,05,25,07,20,7.60
2009,05,25,07,21,7.60
2009,05,25,07,22,7.70
2009,05,25,07,23,7.70
2009,05,25,07,24,7.80
2009,05,25,07,25,7.80
2009,05,25,07,26,7.90
2009,05,25,07,27,7.90
2009,05,25,07,28,8.00
2009,05,25,07,29,8.00
2009,05,25,07,30,8.10
2009,05,25,07,31,8.20
2009,05,25,07,32,8.30
2009,05,25,07,33,8.30
2009,05,25,07,34,8.40
2009,05,25,07,35,8.60
2009,05,25,07,36,8.70
2009,05,25,07,37,8.70
2009,05,25,07,38,8.90
2009,05,25,07,39,9.00
2009,05,25,07,40,9.10
2009,05,25,07,41,9.20
2009,05,25,07,42,9.40
2009,05,25,07,43,9.50
2009,05,25,07,44,9.70
2009,05,25,07,45,9.80
2009,05,25,07,46,10.00
2009,05,25,07,47,10.10
2009,05,25,07,48,10.30
2009,05,25,07,49,10.50
2009,05,25,07,50,10.70
2009,05,25,07,51,10.80
2009,05,25,07,52,11.00
2009,05,25,07,53,11.10
2009,05,25,07,54,11.20
2009,05,25,07,55,11.30
2009,05,25,07,56,11.30
2009,05,25,07,57,11.40
2009,05,25,07,58,11.40
2009,05,25,07,59,11.40
2009,05,25,08,00,11.50
2009,05,25,08,01,11.50
2009,05,25,08,02,11.60
2009,05,25,08,03,11.60
2009,05,25,08,04,11.70
2009,05,25,08,05,11.90
2009,05,25,08,06,12.00
2009,05,25,08,07,12.10
2009,05,25,08,08,12.20
2009,05,25,08,09,12.30
2009,05,25,08,10,12.30
2009,05,25,08,11,12.40
2009,05,25,08,12,12.50
2009,05,25,08,13,12.50
2009,05,25,08,14,12.60
2009,05,25,08,15,12.60
2009,05,25,08,16,12.60
2009,05,25,08,17,12.70
2009,05,25,08,18,12.80
2009,05,25,08,19,12.90
2009,05,25,08,20,13.00
2009,05,25,08,21,13.10
2009,05,25,08,22,13.20
2009,05,25,08,23,13.30
2009,05,25,08,24,13.40
2009,05,25,08,25,13.40
2009,05,25,08,26,13.50
2009,05,25,08,27,13.50
2009,05,25,08,28,13.60
2009,05,25,08,29,13.60
2009,05,25,08,30,13.60
2009,05,25,08,31,13.70
2009,05,25,08,32,13.80
2009,05,25,08,33,13.90
2009,05,25,08,34,14.00
2009,05,25,08,35,14.10
2009,05,25,08,36,14.20
2009,05,25,08,37,14.30
2009,05,25,08,38,14.40
2009,05,25,08,39,14.40
2009,05,25,08,40,14.50
2009,05,25,08,41,14.50
2009,05,25,08,42,14.50
2009,05,25,08,43,14.60
2009,05,25,08,44,14.60
2009,05,25,08,45,14.60
2009,05,25,08,46,14.70
2009,05,25,08,47,14.70
2009,05,25,08,48,14.70
2009,05,25,08,49,14.70
2009,05,25,08,50,14.70
2009,05,25,08,51,14.80
2009,05,25,08,52,14.90
2009,05,25,08,53,15.00
2009,05,25,08,54,15.00
2009,05,25,08,55,15.00
2009,05,25,08,56,15.10
2009,05,25,08,57,15.20
2009,05,25,08,58,15.20
2009,05,25,08,59,15.30
2009,05,25,09,00,15.30
2009,05,25,09,01,15.40
2009,05,25,09,02,15.50
2009,05,25,09,03,15.60
2009,05,25,09,04,15.70
2009,05,25,09,05,15.70
2009,05,25,09,06,15.70
2009,05,25,09,07,15.70
2009,05,25,09,08,15.70
2009,05,25,09,09,15.60
2009,05,25,09,10,15.60
2009,05,25,09,11,15.50
2009,05,25,09,12,15.50
2009,05,25,09,13,15.40
2009,05,25,09,14,15.40
2009,05,25,09,15,15.40
2009,05,25,09,16,15.40
2009,05,25,09,17,15.40
2009,05,25,09,18,15.30
2009,05,25,09,19,15.20
2009,05,25,09,20,15.20
2009,05,25,09,21,15.20
2009,05,25,09,22,15.20
2009,05,25,09,23,15.20
2009,05,25,09,24,15.20
2009,05,25,09,25,15.30
2009,05,25,09,26,15.30
2009,05,25,09,27,15.20
2009,05,25,09,28,15.10
2009,05,25,09,29,15.10
2009,05,25,09,30,15.00
2009,05,25,09,31,15.00
2009,05,25,09,32,15.00
2009,05,25,09,33,15.00
2009,05,25,09,34,15.00
2009,05,25,09,35,15.00
2009,05,25,09,36,15.00
2009,05,25,09,37,15.00
2009,05,25,09,38,15.00
2009,05,25,09,39,15.10
2009,05,25,09,40,15.20
2009,05,25,09,41,15.20
2009,05,25,09,42,15.30
2009,05,25,09,43,15.30
2009,05,25,09,44,15.40
2009,05,25,09,45,15.40
2009,05,25,09,46,15.40
2009,05,25,09,47,15.40
2009,05,25,09,48,15.40
2009,05,25,09,49,15.40
2009,05,25,09,50,15.40
2009,05,25,09,51,15.40
2009,05,25,09,52,15.40
2009,05,25,09,53,15.50
2009,05,25,09,54,15.50
2009,05,25,09,55,15.50
2009,05,25,09,56,15.60
2009,05,25,09,57,15.70
2009,05,25,09,58,15.70
2009,05,25,09,59,15.70
2009,05,25,10,00,15.80
2009,05,25,10,01,15.80
2009,05,25,10,02,15.90
2009,05,25,10,03,15.90
2009,05,25,10,04,16.00
2009,05,25,10,05,16.10
2009,05,25,10,06,16.10
2009,05,25,10,07,16.20
2009,05,25,10,08,16.20
2009,05,25,10,09,16.20
2009,05,25,10,10,16.30
2009,05,25,10,11,16.30
2009,05,25,10,12,16.30
2009,05,25,10,13,16.30
2009,05,25,10,14,16.30
2009,05,25,10,15,16.40
2009,05,25,10,16,16.40
2009,05,25,10,17,16.40
2009,05,25,10,18,16.50
2009,05,25,10,19,16.50
2009,05,25,10,20,16.60
2009,05,25,10,21,16.70
2009,05,25,10,22,16.70
2009,05,25,10,23,16.80
2009,05,25,10,24,16.70
2009,05,25,10,25,16.70
2009,05,25,10,26,16.70
2009,05,25,10,27,16.70
2009,05,25,10,28,16.70
2009,05,25,10,29,16.70
2009,05,25,10,30,16.70
2009,05,25,10,31,16.70
2009,05,25,10,32,16.80
2009,05,25,10,33,16.80
2009,05,25,10,34,16.80
2009,05,25,10,35,16.80
2009,05,25,10,36,16.80
2009,05,25,10,37,16.70
2009,05,25,10,38,16.70
2009,05,25,10,39,16.70
2009,05,25,10,40,16.70
2009,05,25,10,41,16.80
2009,05,25,10,42,16.80
2009,05,25,10,43,16.80
2009,05,25,10,44,16.80
2009,05,25,10,45,16.80
2009,05,25,10,46,16.80
2009,05,25,10,47,16.90
2009,05,25,10,48,16.80
2009,05,25,10,49,16.80
2009,05,25,10,50,16.80
2009,05,25,10,51,16.70
2009,05,25,10,52,16.70
2009,05,25,10,53,16.70
2009,05,25,10,54,16.70
2009,05,25,10,55,16.70
2009,05,25,10,56,16.70
2009,05,25,10,57,16.70
2009,05,25,10,58,16.80
2009,05,25,10,59,16.80
2009,05,25,11,00,16.90
2009,05,25,11,01,16.90
2009,05,25,11,02,17.00
2009,05,25,11,03,17.00
2009,05,25,11,04,17.10
2009,05,25,11,05,17.10
2009,05,25,11,06,17.20
2009,05,25,11,07,17.20
2009,05,25,11,08,17.20
2009,05,25,11,09,17.30
2009,05,25,11,10,17.30
2009,05,25,11,11,17.30
2009,05,25,11,12,17.30
2009,05,25,11,13,17.30
2009,05,25,11,14,17.20
2009,05,25,11,15,17.20
2009,05,25,11,16,17.10
2009,05,25,11,17,17.10
2009,05,25,11,18,17.10
2009,05,25,11,19,17.10
2009,05,25,11,20,17.10
2009,05,25,11,21,17.10
2009,05,25,11,22,17.10
2009,05,25,11,23,17.10
2009,05,25,11,24,17.10
2009,05,25,11,25,17.10
2009,05,25,11,26,17.10
2009,05,25,11,27,17.20
2009,05,25,11,28,17.20
2009,05,25,11,29,17.30
2009,05,25,11,30,17.30
2009,05,25,11,31,17.30
2009,05,25,11,32,17.30
2009,05,25,11,33,17.30
2009,05,25,11,34,17.30
2009,05,25,11,35,17.30
2009,05,25,11,36,17.30
2009,05,25,11,37,17.40
2009,05,25,11,38,17.40
2009,05,25,11,39,17.40
2009,05,25,11,40,17.50
2009,05,25,11,41,17.50
2009,05,25,11,42,17.60
2009,05,25,11,43,17.70
2009,05,25,11,44,17.70
2009,05,25,11,45,17.70
2009,05,25,11,46,17.80
2009,05,25,11,47,17.90
2009,05,25,11,48,17.90
2009,05,25,11,49,18.00
2009,05,25,11,50,18.10
2009,05,25,11,51,18.10
2009,05,25,11,52,18.10
2009,05,25,11,53,18.10
2009,05,25,11,54,18.10
2009,05,25,11,55,18.10
2009,05,25,11,56,18.20
2009,05,25,11,57,18.20
2009,05,25,11,58,18.10
2009,05,25,11,59,18.10
2009,05,25,12,00,18.20
2009,05,25,12,01,18.20
2009,05,25,12,02,18.30
2009,05,25,12,03,18.30
2009,05,25,12,04,18.40
2009,05,25,12,05,18.40
2009,05,25,12,06,18.40
2009,05,25,12,07,18.30
2009,05,25,12,08,18.20
2009,05,25,12,09,18.10
2009,05,25,12,10,18.00
2009,05,25,12,11,17.90
2009,05,25,12,12,17.90
2009,05,25,12,13,17.90
2009,05,25,12,14,18.00
2009,05,25,12,15,18.00
2009,05,25,12,16,18.10
2009,05,25,12,17,18.10
2009,05,25,12,18,18.20
2009,05,25,12,19,18.30
2009,05,25,12,20,18.30
2009,05,25,12,21,18.40
2009,05,25,12,22,18.50
2009,05,25,12,23,18.50
2009,05,25,12,24,18.50
2009,05,25,12,25,18.50
2009,05,25,12,26,18.50
2009,05,25,12,27,18.60
2009,05,25,12,28,18.50
2009,05,25,12,29,18.40
2009,05,25,12,30,18.40
2009,05,25,12,31,18.30
2009,05,25,12,32,18.20
2009,05,25,12,33,18.20
2009,05,25,12,34,18.30
2009,05,25,12,35,18.30
2009,05,25,12,36,18.30
2009,05,25,12,37,18.30
2009,05,25,12,38,18.40
2009,05,25,12,39,18.30
2009,05,25,12,40,18.30
2009,05,25,12,41,18.40
2009,05,25,12,42,18.50
2009,05,25,12,43,18.60
2009,05,25,12,44,18.70
2009,05,25,12,45,18.80
2009,05,25,12,46,18.80
2009,05,25,12,47,18.90
2009,05,25,12,48,19.00
2009,05,25,12,49,19.10
2009,05,25,12,50,19.20
2009,05,25,12,51,19.20
2009,05,25,12,52,19.20
2009,05,25,12,53,19.20
2009,05,25,12,54,19.30
2009,05,25,12,55,19.30
2009,05,25,12,56,19.20
2009,05,25,12,57,19.20
2009,05,25,12,58,19.20
2009,05,25,12,59,19.20
2009,05,25,13,00,19.20
2009,05,25,13,01,19.20
2009,05,25,13,02,19.20
2009,05,25,13,03,19.20
2009,05,25,13,04,19.20
2009,05,25,13,05,19.30
2009,05,25,13,06,19.30
2009,05,25,13,07,19.30
2009,05,25,13,08,19.30
2009,05,25,13,09,19.30
2009,05,25,13,10,19.30
2009,05,25,13,11,19.30
2009,05,25,13,12,19.30
2009,05,25,13,13,19.30
2009,05,25,13,14,19.30
2009,05,25,13,15,19.30
2009,05,25,13,16,19.30
2009,05,25,13,17,19.30
2009,05,25,13,18,19.40
2009,05,25,13,19,19.50
2009,05,25,13,20,19.60
2009,05,25,13,21,19.70
2009,05,25,13,22,19.80
2009,05,25,13,23,19.90
2009,05,25,13,24,19.90
2009,05,25,13,25,20.00
2009,05,25,13,26,20.10
2009,05,25,13,27,20.20
2009,05,25,13,28,20.20
2009,05,25,13,29,20.20
2009,05,25,13,30,20.20
2009,05,25,13,31,20.20
2009,05,25,13,32,20.20
2009,05,25,13,33,20.20
2009,05,25,13,34,20.20
2009,05,25,13,35,20.20
2009,05,25,13,36,20.20
2009,05,25,13,37,20.10
2009,05,25,13,38,20.20
2009,05,25,13,39,20.20
2009,05,25,13,40,20.20
2009,05,25,13,41,20.20
2009,05,25,13,42,20.20
2009,05,25,13,43,20.20
2009,05,25,13,44,20.30
2009,05,25,13,45,20.40
2009,05,25,13,46,20.40
2009,05,25,13,47,20.30
2009,05,25,13,48,20.40
2009,05,25,13,49,20.40
2009,05,25,13,50,20.60
2009,05,25,13,51,20.60
2009,05,25,13,52,20.70
2009,05,25,13,53,20.80
2009,05,25,13,54,20.90
2009,05,25,13,55,21.00
2009,05,25,13,56,21.10
2009,05,25,13,57,21.20
2009,05,25,13,58,21.30
2009,05,25,13,59,21.30
2009,05,25,14,00,21.20
2009,05,25,14,01,21.20
2009,05,25,14,02,21.20
2009,05,25,14,03,21.20
2009,05,25,14,04,21.20
2009,05,25,14,05,21.20
2009,05,25,14,06,21.20
2009,05,25,14,07,21.30
2009,05,25,14,08,21.50
2009,05,25,14,09,21.60
2009,05,25,14,10,21.60
2009,05,25,14,11,21.50
2009,05,25,14,12,21.50
2009,05,25,14,13,21.50
2009,05,25,14,14,21.40
2009,05,25,14,15,21.30
2009,05,25,14,16,21.20
2009,05,25,14,17,21.20
2009,05,25,14,18,21.00
2009,05,25,14,19,20.80
2009,05,25,14,20,20.70
2009,05,25,14,21,20.50
2009,05,25,14,22,20.40
2009,05,25,14,23,20.40
2009,05,25,14,24,20.40
2009,05,25,14,25,20.50
2009,05,25,14,26,20.60
2009,05,25,14,27,20.70
2009,05,25,14,28,20.70
2009,05,25,14,29,20.80
2009,05,25,14,30,20.80
2009,05,25,14,31,20.80
2009,05,25,14,32,20.80
2009,05,25,14,33,20.80
2009,05,25,14,34,20.90
2009,05,25,14,35,20.90
2009,05,25,14,36,20.90
2009,05,25,14,37,20.90
2009,05,25,14,38,21.00
2009,05,25,14,39,21.10
2009,05,25,14,40,21.20
2009,05,25,14,41,21.10
2009,05,25,14,42,21.00
2009,05,25,14,43,20.90
2009,05,25,14,44,20.80
2009,05,25,14,45,20.70
2009,05,25,14,46,20.60
2009,05,25,14,47,20.40
2009,05,25,14,48,20.30
2009,05,25,14,49,20.30
2009,05,25,14,50,20.30
2009,05,25,14,51,20.30
2009,05,25,14,52,20.30
2009,05,25,14,53,20.30
2009,05,25,14,54,20.30
2009,05,25,14,55,20.30
2009,05,25,14,56,20.20
2009,05,25,14,57,20.20
2009,05,25,14,58,20.30
2009,05,25,14,59,20.40
2009,05,25,15,00,20.50
2009,05,25,15,01,20.60
2009,05,25,15,02,20.70
2009,05,25,15,03,20.70
2009,05,25,15,04,20.70
2009,05,25,15,05,20.70
2009,05,25,15,06,20.70
2009,05,25,15,07,20.70
2009,05,25,15,08,20.70
2009,05,25,15,09,20.70
2009,05,25,15,10,20.80
2009,05,25,15,11,20.80
2009,05,25,15,12,20.80
2009,05,25,15,13,20.70
2009,05,25,15,14,20.60
2009,05,25,15,15,20.50
2009,05,25,15,16,20.50
2009,05,25,15,17,20.40
2009,05,25,15,18,20.30
2009,05,25,15,19,20.30
2009,05,25,15,20,20.30
2009,05,25,15,21,20.30
2009,05,25,15,22,20.40
2009,05,25,15,23,20.40
2009,05,25,15,24,20.40
2009,05,25,15,25,20.40
2009,05,25,15,26,20.50
2009,05,25,15,27,20.50
2009,05,25,15,28,20.60
2009,05,25,15,29,20.60
2009,05,25,15,30,20.70
2009,05,25,15,31,20.80
2009,05,25,15,32,20.90
2009,05,25,15,33,20.90
2009,05,25,15,34,20.90
2009,05,25,15,35,20.90
2009,05,25,15,36,20.80
2009,05,25,15,37,20.70
2009,05,25,15,38,20.70
2009,05,25,15,39,20.60
2009,05,25,15,40,20.60
2009,05,25,15,41,20.50
2009,05,25,15,42,20.50
2009,05,25,15,43,20.40
2009,05,25,15,44,20.40
2009,05,25,15,45,20.40
2009,05,25,15,46,20.40
2009,05,25,15,47,20.50
2009,05,25,15,48,20.50
2009,05,25,15,49,20.50
2009,05,25,15,50,20.50
2009,05,25,15,51,20.40
2009,05,25,15,52,20.30
2009,05,25,15,53,20.20
2009,05,25,15,54,20.10
2009,05,25,15,55,20.00
2009,05,25,15,56,19.90
2009,05,25,15,57,19.90
2009,05,25,15,58,19.80
2009,05,25,15,59,19.70
2009,05,25,16,00,19.80
2009,05,25,16,01,19.80
2009,05,25,16,02,19.80
2009,05,25,16,03,19.80
2009,05,25,16,04,19.90
2009,05,25,16,05,19.90
2009,05,25,16,06,20.00
2009,05,25,16,07,20.00
2009,05,25,16,08,20.10
2009,05,25,16,09,20.10
2009,05,25,16,10,20.20
2009,05,25,16,11,20.20
2009,05,25,16,12,20.20
2009,05,25,16,13,20.20
2009,05,25,16,14,20.30
2009,05,25,16,15,20.30
2009,05,25,16,16,20.40
2009,05,25,16,17,20.40
2009,05,25,16,18,20.40
2009,05,25,16,19,20.40
2009,05,25,16,20,20.40
2009,05,25,16,21,20.40
2009,05,25,16,22,20.30
2009,05,25,16,23,20.30
2009,05,25,16,24,20.40
2009,05,25,16,25,20.40
2009,05,25,16,26,20.40
2009,05,25,16,27,20.40
2009,05,25,16,28,20.40
2009,05,25,16,29,20.40
2009,05,25,16,30,20.40
2009,05,25,16,31,20.40
2009,05,25,16,32,20.40
2009,05,25,16,33,20.40
2009,05,25,16,34,20.40
2009,05,25,16,35,20.40
2009,05,25,16,36,20.50
2009,05,25,16,37,20.50
2009,05,25,16,38,20.50
2009,05,25,16,39,20.50
2009,05,25,16,40,20.50
2009,05,25,16,41,20.50
2009,05,25,16,42,20.60
2009,05,25,16,43,20.60
2009,05,25,16,44,20.50
2009,05,25,16,45,20.60
2009,05,25,16,46,20.60
2009,05,25,16,47,20.60
2009,05,25,16,48,20.60
2009,05,25,16,49,20.60
2009,05,25,16,50,20.60
2009,05,25,16,51,20.60
2009,05,25,16,52,20.50
2009,05,25,16,53,20.50
2009,05,25,16,54,20.50
2009,05,25,16,55,20.50
2009,05,25,16,56,20.50
2009,05,25,16,57,20.60
2009,05,25,16,58,20.50
2009,05,25,16,59,20.50
2009,05,25,17,00,20.50
2009,05,25,17,01,20.40
2009,05,25,17,02,20.40
2009,05,25,17,03,20.40
2009,05,25,17,04,20.40
2009,05,25,17,05,20.40
2009,05,25,17,06,20.40
2009,05,25,17,07,20.40
2009,05,25,17,08,20.40
2009,05,25,17,09,20.40
2009,05,25,17,10,20.40
2009,05,25,17,11,20.40
2009,05,25,17,12,20.50
2009,05,25,17,13,20.50
2009,05,25,17,14,20.50
2009,05,25,17,15,20.50
2009,05,25,17,16,20.50
2009,05,25,17,17,20.50
2009,05,25,17,18,20.40
2009,05,25,17,19,20.40
2009,05,25,17,20,20.40
2009,05,25,17,21,20.30
2009,05,25,17,22,20.30
2009,05,25,17,23,20.20
2009,05,25,17,24,20.10
2009,05,25,17,25,20.10
2009,05,25,17,26,20.00
2009,05,25,17,27,20.00
2009,05,25,17,28,19.90
2009,05,25,17,29,19.80
2009,05,25,17,30,19.70
2009,05,25,17,31,19.70
2009,05,25,17,32,19.70
2009,05,25,17,33,19.70
2009,05,25,17,34,19.60
2009,05,25,17,35,19.60
2009,05,25,17,36,19.60
2009,05,25,17,37,19.60
2009,05,25,17,38,19.50
2009,05,25,17,39,19.50
2009,05,25,17,40,19.50
2009,05,25,17,41,19.40
2009,05,25,17,42,19.40
2009,05,25,17,43,19.40
2009,05,25,17,44,19.40
2009,05,25,17,45,19.40
2009,05,25,17,46,19.40
2009,05,25,17,47,19.40
2009,05,25,17,48,19.30
2009,05,25,17,49,19.30
2009,05,25,17,50,19.30
2009,05,25,17,51,19.30
2009,05,25,17,52,19.30
2009,05,25,17,53,19.30
2009,05,25,17,54,19.30
2009,05,25,17,55,19.30
2009,05,25,17,56,19.30
2009,05,25,17,57,19.30
2009,05,25,17,58,19.30
2009,05,25,17,59,19.30
2009,05,25,18,00,19.30
2009,05,25,18,01,19.30
2009,05,25,18,02,19.30
2009,05,25,18,03,19.30
2009,05,25,18,04,19.30
2009,05,25,18,05,19.20
2009,05,25,18,06,19.20
2009,05,25,18,07,19.10
2009,05,25,18,08,19.10
2009,05,25,18,09,19.00
2009,05,25,18,10,19.00
2009,05,25,18,11,18.90